Station Historical Data
Daily Summary for February 9, 2017 Units:  Metric    English   Both
« Previous Day
Next Day »
Daily Weekly Monthly Yearly Custom
  High: Low: Average:
Temperature: 12.5 °C 9.3 °C 10.8 °C
Dew Point: 12.2 °C 8.9 °C 10.5 °C
Humidity: 98 % 97 % 98 %
Wind Speed: 43.5 km/h 0 km/h 13.4 km/h
Wind Gust: 62.8 km/h - -
Wind:- - South
Pressure: 1019.5 hPa 1012.4 hPa -
Precipitation: 0 mm    
Historical Graphs
 
 
Tabular Data for February 9, 2017
Time Temperature Dew Point Pressure Wind Wind Speed Wind Gust Humidity Rainfall Rate (Hourly) solar
00:03 12.5 °C 12.2 °C 1019.5 hPa SSE 12.9 km/h 16.1 km/h 98 % 0 mm 0.00 W/m2
00:08 12.4 °C 12.1 °C 1019.5 hPa Calm   16.1 km/h 98 % 0 mm 0.00 W/m2
00:13 12.4 °C 12.1 °C 1019.5 hPa SSE 6.4 km/h 17.7 km/h 98 % 0 mm 0.00 W/m2
00:18 12.4 °C 12.1 °C 1019.5 hPa SSE 8 km/h 19.3 km/h 98 % 0 mm 0.00 W/m2
00:23 12.4 °C 12.1 °C 1019.2 hPa SSE 3.2 km/h 19.3 km/h 98 % 0 mm 0.00 W/m2
00:28 12.4 °C 12.1 °C 1019.2 hPa SSE 14.5 km/h 16.1 km/h 98 % 0 mm 0.00 W/m2
00:33 12.4 °C 12.1 °C 1019.2 hPa SSE 8 km/h 14.5 km/h 98 % 0 mm 0.00 W/m2
00:38 12.4 °C 12.1 °C 1019.2 hPa SE 3.2 km/h 19.3 km/h 98 % 0 mm 0.00 W/m2
00:43 12.4 °C 12.1 °C 1019.2 hPa SSE 8 km/h 16.1 km/h 98 % 0 mm 0.00 W/m2
00:48 12.4 °C 12.1 °C 1019.2 hPa Calm   17.7 km/h 98 % 0 mm 0.00 W/m2
00:53 12.3 °C 12.1 °C 1019.2 hPa SSE 12.9 km/h 16.1 km/h 98 % 0 mm 0.00 W/m2
00:58 12.3 °C 12.1 °C 1019.2 hPa SE 16.1 km/h 17.7 km/h 98 % 0 mm 0.00 W/m2
01:03 12.3 °C 12.1 °C 1019.2 hPa SSE 8 km/h 17.7 km/h 98 % 0 mm 0.00 W/m2
01:08 12.3 °C 11.9 °C 1019.2 hPa SSE 6.4 km/h 17.7 km/h 98 % 0 mm 0.00 W/m2
01:13 12.3 °C 11.9 °C 1019.2 hPa SE 14.5 km/h 19.3 km/h 98 % 0 mm 0.00 W/m2
01:18 12.2 °C 11.9 °C 1018.8 hPa SSE 12.9 km/h 19.3 km/h 98 % 0 mm 0.00 W/m2
01:23 12.2 °C 11.9 °C 1018.8 hPa SE 1.6 km/h 19.3 km/h 98 % 0 mm 0.00 W/m2
01:28 12.2 °C 11.9 °C 1018.8 hPa SSE 12.9 km/h 19.3 km/h 98 % 0 mm 0.00 W/m2
01:33 12.2 °C 11.8 °C 1018.5 hPa SE 12.9 km/h 22.5 km/h 98 % 0 mm 0.00 W/m2
01:38 12.1 °C 11.8 °C 1018.5 hPa ESE 8 km/h 24.1 km/h 98 % 0 mm 0.00 W/m2
01:43 12.1 °C 11.8 °C 1018.2 hPa SE 19.3 km/h 24.1 km/h 98 % 0 mm 0.00 W/m2
01:48 12 °C 11.7 °C 1017.8 hPa ESE 11.3 km/h 22.5 km/h 98 % 0 mm 0.00 W/m2
01:53 11.9 °C 11.7 °C 1017.5 hPa SSE 20.9 km/h 33.8 km/h 98 % 0 mm 0.00 W/m2
01:58 11.9 °C 11.6 °C 1017.2 hPa SE 14.5 km/h 29 km/h 98 % 0 mm 0.00 W/m2
02:03 11.9 °C 11.6 °C 1017.2 hPa East 29 km/h 29 km/h 98 % 0 mm 0.00 W/m2
02:08 11.8 °C 11.6 °C 1017.2 hPa SE 19.3 km/h 32.2 km/h 98 % 0 mm 0.00 W/m2
02:13 11.8 °C 11.5 °C 1016.8 hPa SE 6.4 km/h 29 km/h 98 % 0 mm 0.00 W/m2
02:18 11.7 °C 11.4 °C 1017.2 hPa ESE 17.7 km/h 29 km/h 98 % 0 mm 0.00 W/m2
02:23 11.7 °C 11.4 °C 1016.8 hPa SE 19.3 km/h 25.7 km/h 98 % 0 mm 0.00 W/m2
02:28 11.6 °C 11.3 °C 1016.5 hPa SE 33.8 km/h 33.8 km/h 98 % 0 mm 0.00 W/m2
02:33 11.6 °C 11.2 °C 1016.1 hPa ESE 6.4 km/h 24.1 km/h 98 % 0 mm 0.00 W/m2
02:38 11.5 °C 11.2 °C 1015.8 hPa SE 11.3 km/h 35.4 km/h 98 % 0 mm 0.00 W/m2
02:43 11.4 °C 11.1 °C 1016.5 hPa SE 14.5 km/h 29 km/h 98 % 0 mm 0.00 W/m2
02:48 11.4 °C 11.1 °C 1016.1 hPa SSE 8 km/h 22.5 km/h 98 % 0 mm 0.00 W/m2
02:53 11.4 °C 11.1 °C 1016.1 hPa SSE 6.4 km/h 22.5 km/h 98 % 0 mm 0.00 W/m2
02:58 11.4 °C 11.1 °C 1016.5 hPa SE 19.3 km/h 20.9 km/h 98 % 0 mm 0.00 W/m2
03:03 11.3 °C 11 °C 1016.1 hPa SE 12.9 km/h 25.7 km/h 98 % 0 mm 0.00 W/m2
03:08 11.3 °C 11 °C 1016.5 hPa SE 14.5 km/h 27.4 km/h 98 % 0 mm 0.00 W/m2
03:13 11.3 °C 11 °C 1016.5 hPa SE 11.3 km/h 19.3 km/h 98 % 0 mm 0.00 W/m2
03:18 11.3 °C 11 °C 1016.5 hPa SE 6.4 km/h 14.5 km/h 98 % 0 mm 0.00 W/m2
03:23 11.3 °C 11 °C 1016.5 hPa SE 11.3 km/h 24.1 km/h 98 % 0 mm 0.00 W/m2
03:28 11.3 °C 11 °C 1016.5 hPa SSE 3.2 km/h 16.1 km/h 98 % 0 mm 0.00 W/m2
03:33 11.3 °C 11 °C 1016.5 hPa SE 14.5 km/h 17.7 km/h 98 % 0 mm 0.00 W/m2
03:38 11.3 °C 11 °C 1016.5 hPa SSE 3.2 km/h 16.1 km/h 98 % 0 mm 0.00 W/m2
03:43 11.3 °C 11 °C 1016.5 hPa Calm   6.4 km/h 98 % 0 mm 0.00 W/m2
03:48 11.3 °C 11 °C 1016.5 hPa SSE 9.7 km/h 11.3 km/h 98 % 0 mm 0.00 W/m2
03:53 11.3 °C 11 °C 1016.1 hPa Calm     98 % 0 mm 0.00 W/m2
03:58 11.3 °C 11 °C 1016.1 hPa Calm     98 % 0 mm 0.00 W/m2
04:03 11.3 °C 11 °C 1015.8 hPa Calm     98 % 0 mm 0.00 W/m2
04:08 11.3 °C 11 °C 1015.8 hPa Calm     98 % 0 mm 0.00 W/m2
04:13 11.3 °C 11 °C 1016.1 hPa Calm     98 % 0 mm 0.00 W/m2
04:18 11.3 °C 11 °C 1016.1 hPa Calm     98 % 0 mm 0.00 W/m2
04:23 11.3 °C 11 °C 1016.1 hPa Calm     98 % 0 mm 0.00 W/m2
04:28 11.3 °C 11 °C 1015.8 hPa Calm     98 % 0 mm 0.00 W/m2
04:33 11.3 °C 11 °C 1015.8 hPa Calm     98 % 0 mm 0.00 W/m2
04:38 11.3 °C 11 °C 1015.8 hPa Calm     98 % 0 mm 0.00 W/m2
04:43 11.3 °C 11 °C 1015.8 hPa Calm     98 % 0 mm 0.00 W/m2
04:48 11.2 °C 10.9 °C 1015.5 hPa Calm   1.6 km/h 98 % 0 mm 0.00 W/m2
04:53 11.2 °C 10.9 °C 1015.8 hPa Calm     98 % 0 mm 0.00 W/m2
04:58 11.2 °C 10.9 °C 1015.5 hPa Calm   12.9 km/h 98 % 0 mm 0.00 W/m2
05:03 11.2 °C 10.8 °C 1015.5 hPa SE 9.7 km/h 11.3 km/h 98 % 0 mm 0.00 W/m2
05:08 11.2 °C 10.8 °C 1015.5 hPa Calm     98 % 0 mm 0.00 W/m2
05:13 11.1 °C 10.8 °C 1015.5 hPa Calm     98 % 0 mm 0.00 W/m2
05:18 11.1 °C 10.8 °C 1015.5 hPa SSE 6.4 km/h 12.9 km/h 98 % 0 mm 0.00 W/m2
05:23 11.1 °C 10.8 °C 1015.5 hPa Calm     98 % 0 mm 0.00 W/m2
05:28 11 °C 10.7 °C 1015.5 hPa Calm     98 % 0 mm 0.00 W/m2
05:33 11 °C 10.7 °C 1015.5 hPa Calm     98 % 0 mm 0.00 W/m2
05:38 10.9 °C 10.7 °C 1015.8 hPa Calm     98 % 0 mm 0.00 W/m2
05:43 10.9 °C 10.7 °C 1015.8 hPa Calm     98 % 0 mm 0.00 W/m2
05:48 10.9 °C 10.7 °C 1015.8 hPa Calm     98 % 0 mm 0.00 W/m2
05:53 10.9 °C 10.6 °C 1015.1 hPa Calm     98 % 0 mm 0.00 W/m2
05:58 10.9 °C 10.6 °C 1015.5 hPa Calm     98 % 0 mm 0.00 W/m2
06:03 10.9 °C 10.6 °C 1015.8 hPa Calm   1.6 km/h 98 % 0 mm 0.00 W/m2
06:08 10.9 °C 10.7 °C 1015.5 hPa Calm   1.6 km/h 98 % 0 mm 0.00 W/m2
06:13 10.9 °C 10.7 °C 1014.8 hPa SE 8 km/h 17.7 km/h 98 % 0 mm 0.00 W/m2
06:18 10.9 °C 10.7 °C 1014.1 hPa SE 9.7 km/h 20.9 km/h 98 % 0 mm 0.00 W/m2
06:23 10.9 °C 10.7 °C 1014.8 hPa South 11.3 km/h 16.1 km/h 98 % 0 mm 0.00 W/m2
06:28 11 °C 10.7 °C 1015.1 hPa Calm   19.3 km/h 98 % 0 mm 0.00 W/m2
06:33 11 °C 10.7 °C 1015.5 hPa South 11.3 km/h 14.5 km/h 98 % 0 mm 0.00 W/m2
06:38 11 °C 10.7 °C 1015.1 hPa SSE 11.3 km/h 19.3 km/h 98 % 0 mm 0.00 W/m2
06:43 11.1 °C 10.8 °C 1014.8 hPa SSE 9.7 km/h 19.3 km/h 98 % 0 mm 0.00 W/m2
06:48 11 °C 10.7 °C 1014.8 hPa SSE 12.9 km/h 12.9 km/h 98 % 0 mm 0.00 W/m2
06:53 11 °C 10.7 °C 1014.8 hPa SSE 11.3 km/h 19.3 km/h 98 % 0 mm 0.00 W/m2
06:58 11 °C 10.7 °C 1014.8 hPa SSE 11.3 km/h 19.3 km/h 98 % 0 mm 0.00 W/m2
07:03 11.1 °C 10.8 °C 1014.8 hPa SSE 20.9 km/h 22.5 km/h 98 % 0 mm 0.00 W/m2
07:08 11.1 °C 10.8 °C 1014.4 hPa SE 9.7 km/h 19.3 km/h 98 % 0 mm 0.00 W/m2
07:13 11.1 °C 10.8 °C 1014.4 hPa SSE 11.3 km/h 20.9 km/h 98 % 0 mm 0.00 W/m2
07:18 11.1 °C 10.8 °C 1014.4 hPa SSE 12.9 km/h 24.1 km/h 98 % 0 mm 0.00 W/m2
07:23 11.1 °C 10.8 °C 1014.8 hPa South 11.3 km/h 25.7 km/h 98 % 0 mm 0.00 W/m2
07:28 11.1 °C 10.8 °C 1014.4 hPa South 11.3 km/h 22.5 km/h 98 % 0 mm 5.00 W/m2
07:29 11.1 °C 10.8 °C 1014.4 hPa South 3.2 km/h 22.5 km/h 98 % 0 mm 5.00 W/m2
07:34 11.2 °C 10.8 °C 1014.4 hPa SSE 11.3 km/h 19.3 km/h 98 % 0 mm 5.00 W/m2
07:39 11.2 °C 10.8 °C 1014.8 hPa SE 11.3 km/h 19.3 km/h 98 % 0 mm 7.00 W/m2
07:44 11.2 °C 10.8 °C 1014.8 hPa SSE 6.4 km/h 19.3 km/h 98 % 0 mm 7.00 W/m2
07:49 11.2 °C 10.8 °C 1014.8 hPa South 19.3 km/h 19.3 km/h 98 % 0 mm 11.00 W/m2
07:54 11.2 °C 10.8 °C 1015.1 hPa SSE 14.5 km/h 17.7 km/h 98 % 0 mm 7.00 W/m2
07:59 11.2 °C 10.8 °C 1015.1 hPa SSW 6.4 km/h 17.7 km/h 98 % 0 mm 9.00 W/m2
08:04 11.2 °C 10.9 °C 1015.1 hPa SSW 14.5 km/h 25.7 km/h 98 % 0 mm 11.00 W/m2
08:09 11.2 °C 10.9 °C 1014.8 hPa SE 14.5 km/h 30.6 km/h 98 % 0 mm 7.00 W/m2
08:14 11.3 °C 11 °C 1014.8 hPa SSW 9.7 km/h 25.7 km/h 98 % 0 mm 9.00 W/m2
08:19 11.3 °C 11 °C 1014.8 hPa SSE 11.3 km/h 29 km/h 98 % 0 mm 11.00 W/m2
08:24 11.3 °C 11 °C 1014.8 hPa South 20.9 km/h 30.6 km/h 98 % 0 mm 9.00 W/m2
08:29 11.3 °C 11 °C 1014.8 hPa South 25.7 km/h 33.8 km/h 98 % 0 mm 11.00 W/m2
08:34 11.3 °C 11 °C 1014.8 hPa SSE 14.5 km/h 25.7 km/h 98 % 0 mm 12.00 W/m2
08:39 11.3 °C 11 °C 1014.8 hPa SSE 11.3 km/h 30.6 km/h 98 % 0 mm 9.00 W/m2
08:44 11.3 °C 11 °C 1014.8 hPa SSE 24.1 km/h 29 km/h 98 % 0 mm 9.00 W/m2
08:49 11.4 °C 11.1 °C 1014.4 hPa SE 19.3 km/h 30.6 km/h 98 % 0 mm 11.00 W/m2
08:54 11.4 °C 11.1 °C 1014.8 hPa SSW 22.5 km/h 32.2 km/h 98 % 0 mm 9.00 W/m2
08:59 11.4 °C 11.1 °C 1014.1 hPa SE 9.7 km/h 33.8 km/h 98 % 2.03 mm 14.00 W/m2
09:04 11.4 °C 11.1 °C 1014.4 hPa South 24.1 km/h 29 km/h 98 % 1.52 mm 14.00 W/m2
09:09 11.5 °C 11.2 °C 1014.4 hPa SE 20.9 km/h 37 km/h 98 % 1.52 mm 9.00 W/m2
09:14 11.5 °C 11.2 °C 1014.4 hPa South 24.1 km/h 38.6 km/h 98 % 1.52 mm 18.00 W/m2
09:19 11.6 °C 11.2 °C 1014.4 hPa South 11.3 km/h 33.8 km/h 98 % 1.52 mm 12.00 W/m2
09:24 11.6 °C 11.2 °C 1014.4 hPa SSE 17.7 km/h 29 km/h 98 % 1.52 mm 18.00 W/m2
09:29 11.6 °C 11.2 °C 1014.4 hPa South 22.5 km/h 38.6 km/h 98 % 1.52 mm 18.00 W/m2
09:34 11.6 °C 11.2 °C 1014.4 hPa South 9.7 km/h 38.6 km/h 98 % 2.03 mm 19.00 W/m2
09:39 11.6 °C 11.2 °C 1014.4 hPa South 9.7 km/h 27.4 km/h 98 % 2.03 mm 21.00 W/m2
09:44 11.6 °C 11.2 °C 1014.1 hPa SSE 14.5 km/h 29 km/h 98 % 1.27 mm 16.00 W/m2
09:49 11.6 °C 11.2 °C 1014.4 hPa SE 9.7 km/h 32.2 km/h 98 % 1.27 mm 21.00 W/m2
09:54 11.6 °C 11.2 °C 1014.4 hPa South 4.8 km/h 40.2 km/h 98 % 1.27 mm 23.00 W/m2
09:59 11.6 °C 11.2 °C 1014.4 hPa SSE 29 km/h 45.1 km/h 98 % 1.02 mm 23.00 W/m2
10:04 11.5 °C 11.2 °C 1014.4 hPa SE 35.4 km/h 40.2 km/h 98 % 3.3 mm 21.00 W/m2
10:09 11.4 °C 11.1 °C 1014.1 hPa SSE 27.4 km/h 48.3 km/h 98 % 3.05 mm 21.00 W/m2
10:14 11.4 °C 11.1 °C 1014.1 hPa SSE 14.5 km/h 38.6 km/h 98 % 3.81 mm 19.00 W/m2
10:19 11.4 °C 11.1 °C 1014.1 hPa SSE 17.7 km/h 40.2 km/h 98 % 2.54 mm 28.00 W/m2
10:24 11.4 °C 11.1 °C 1014.1 hPa SSE 43.5 km/h 54.7 km/h 98 % 3.56 mm 25.00 W/m2
10:29 11.3 °C 11 °C 1013.8 hPa SE 32.2 km/h 53.1 km/h 98 % 2.54 mm 26.00 W/m2
10:34 11.1 °C 10.8 °C 1013.8 hPa SE 41.8 km/h 53.1 km/h 98 % 2.03 mm 26.00 W/m2
10:39 11 °C 10.7 °C 1013.8 hPa South 41.8 km/h 62.8 km/h 98 % 2.29 mm 28.00 W/m2
10:44 11.1 °C 10.8 °C 1013.8 hPa South 38.6 km/h 56.3 km/h 98 % 2.54 mm 19.00 W/m2
10:49 11 °C 10.7 °C 1013.8 hPa SW 20.9 km/h 30.6 km/h 98 % 2.54 mm 18.00 W/m2
10:54 10.9 °C 10.7 °C 1014.1 hPa South 16.1 km/h 41.8 km/h 98 % 1.52 mm 12.00 W/m2
10:59 11 °C 10.7 °C 1014.4 hPa SSW 14.5 km/h 35.4 km/h 98 % 3.3 mm 9.00 W/m2
11:04 11.1 °C 10.8 °C 1014.1 hPa SSE 6.4 km/h 37 km/h 98 % 3.05 mm 19.00 W/m2
11:09 11.2 °C 10.9 °C 1013.8 hPa South 16.1 km/h 30.6 km/h 98 % 2.54 mm 19.00 W/m2
11:14 11.3 °C 11 °C 1013.4 hPa SSE 14.5 km/h 27.4 km/h 98 % 2.29 mm 12.00 W/m2
11:19 11.4 °C 11.1 °C 1013.4 hPa SSE 16.1 km/h 32.2 km/h 98 % 3.56 mm 19.00 W/m2
11:24 11.5 °C 11.2 °C 1014.1 hPa South 27.4 km/h 35.4 km/h 98 % 2.54 mm 23.00 W/m2
11:29 11.5 °C 11.2 °C 1014.1 hPa SSE 8 km/h 32.2 km/h 98 % 2.03 mm 16.00 W/m2
11:34 11.6 °C 11.2 °C 1013.8 hPa South 20.9 km/h 38.6 km/h 98 % 3.3 mm 11.00 W/m2
11:39 11.6 °C 11.2 °C 1013.8 hPa South 17.7 km/h 49.9 km/h 98 % 2.54 mm 19.00 W/m2
11:44 11.6 °C 11.2 °C 1014.1 hPa WSW 16.1 km/h 35.4 km/h 98 % 21.84 mm 7.00 W/m2
11:49 11.6 °C 11.2 °C 1014.1 hPa South 32.2 km/h 53.1 km/h 98 % 5.59 mm 16.00 W/m2
11:54 11.5 °C 11.2 °C 1014.1 hPa South 16.1 km/h 38.6 km/h 98 % 4.57 mm 11.00 W/m2
11:59 11.4 °C 11.1 °C 1014.4 hPa South 16.1 km/h 49.9 km/h 98 % 5.59 mm 9.00 W/m2
12:04 11.3 °C 11 °C 1014.8 hPa Calm   32.2 km/h 98 % 10.67 mm 11.00 W/m2
12:09 11.2 °C 10.9 °C 1014.4 hPa SSE 30.6 km/h 48.3 km/h 98 % 4.57 mm 18.00 W/m2
12:14 11.1 °C 10.8 °C 1014.8 hPa South 14.5 km/h 38.6 km/h 98 % 5.08 mm 19.00 W/m2
12:19 11.1 °C 10.8 °C 1014.4 hPa SSW 20.9 km/h 49.9 km/h 98 % 6.1 mm 21.00 W/m2
12:24 10.9 °C 10.7 °C 1014.4 hPa SSW 8 km/h 43.5 km/h 98 % 5.33 mm 30.00 W/m2
12:29 10.9 °C 10.6 °C 1014.4 hPa SSW 11.3 km/h 40.2 km/h 98 % 4.32 mm 21.00 W/m2
12:34 10.8 °C 10.5 °C 1014.1 hPa South 17.7 km/h 41.8 km/h 98 % 3.3 mm 23.00 W/m2
12:40 10.7 °C 10.4 °C 1014.4 hPa South 14.5 km/h 35.4 km/h 98 % 4.32 mm 12.00 W/m2
12:45 10.7 °C 10.4 °C 1014.1 hPa South 19.3 km/h 35.4 km/h 98 % 6.35 mm 28.00 W/m2
12:50 10.6 °C 10.3 °C 1013.8 hPa South 24.1 km/h 45.1 km/h 98 % 5.84 mm 21.00 W/m2
12:55 10.6 °C 10.3 °C 1013.8 hPa SW 12.9 km/h 41.8 km/h 98 % 2.54 mm 21.00 W/m2
13:00 10.5 °C 10.2 °C 1013.8 hPa SE 11.3 km/h 41.8 km/h 98 % 3.81 mm 19.00 W/m2
13:05 10.4 °C 10.2 °C 1014.1 hPa South 33.8 km/h 38.6 km/h 98 % 2.29 mm 28.00 W/m2
13:10 10.4 °C 10.1 °C 1014.1 hPa South 19.3 km/h 49.9 km/h 98 % 2.29 mm 28.00 W/m2
13:15 10.2 °C 9.9 °C 1014.1 hPa South 27.4 km/h 38.6 km/h 98 % 3.81 mm 26.00 W/m2
13:20 10.1 °C 9.8 °C 1013.8 hPa SE 37 km/h 43.5 km/h 98 % 3.56 mm 35.00 W/m2
13:25 9.9 °C 9.7 °C 1014.1 hPa South 22.5 km/h 46.7 km/h 98 % 3.3 mm 30.00 W/m2
13:30 9.8 °C 9.6 °C 1014.1 hPa SSW 29 km/h 45.1 km/h 98 % 4.06 mm 26.00 W/m2
13:35 9.7 °C 9.4 °C 1013.8 hPa South 22.5 km/h 37 km/h 98 % 3.56 mm 25.00 W/m2
13:40 9.7 °C 9.4 °C 1013.8 hPa SSE 41.8 km/h 54.7 km/h 98 % 4.57 mm 33.00 W/m2
13:45 9.6 °C 9.3 °C 1014.1 hPa South 20.9 km/h 54.7 km/h 98 % 4.83 mm 23.00 W/m2
13:50 9.7 °C 9.4 °C 1013.8 hPa South 25.7 km/h 35.4 km/h 98 % 5.08 mm 18.00 W/m2
13:55 9.7 °C 9.4 °C 1013.8 hPa SSE 11.3 km/h 41.8 km/h 98 % 3.56 mm 21.00 W/m2
14:00 9.7 °C 9.4 °C 1014.1 hPa South 25.7 km/h 45.1 km/h 98 % 3.56 mm 19.00 W/m2
14:05 9.8 °C 9.5 °C 1014.1 hPa South 12.9 km/h 43.5 km/h 98 % 3.56 mm 16.00 W/m2
14:10 9.8 °C 9.5 °C 1013.8 hPa South 3.2 km/h 38.6 km/h 98 % 5.08 mm 18.00 W/m2
14:15 9.8 °C 9.6 °C 1014.1 hPa South 17.7 km/h 43.5 km/h 98 % 5.08 mm 16.00 W/m2
14:20 9.8 °C 9.6 °C 1013.8 hPa South 12.9 km/h 35.4 km/h 98 % 5.08 mm 25.00 W/m2
14:25 9.8 °C 9.6 °C 1013.4 hPa SSE 27.4 km/h 38.6 km/h 98 % 5.84 mm 33.00 W/m2
14:30 9.9 °C 9.6 °C 1013.8 hPa South 25.7 km/h 40.2 km/h 98 % 4.57 mm 18.00 W/m2
14:35 9.9 °C 9.6 °C 1013.8 hPa SW 14.5 km/h 41.8 km/h 98 % 3.05 mm 16.00 W/m2
14:40 9.9 °C 9.7 °C 1013.8 hPa SSE 11.3 km/h 27.4 km/h 98 % 10.16 mm 14.00 W/m2
14:45 9.9 °C 9.7 °C 1013.8 hPa SE 24.1 km/h 32.2 km/h 98 % 8.64 mm 12.00 W/m2
14:50 10 °C 9.7 °C 1013.8 hPa South 17.7 km/h 33.8 km/h 98 % 10.67 mm 9.00 W/m2
14:55 10 °C 9.7 °C 1014.1 hPa SSE 19.3 km/h 22.5 km/h 98 % 6.35 mm 14.00 W/m2
15:00 10 °C 9.7 °C 1013.8 hPa SSE 27.4 km/h 35.4 km/h 98 % 4.57 mm 12.00 W/m2
15:05 10 °C 9.7 °C 1013.4 hPa SSE 22.5 km/h 41.8 km/h 98 % 4.32 mm 11.00 W/m2
15:10 10 °C 9.7 °C 1013.4 hPa SSE 17.7 km/h 32.2 km/h 98 % 3.81 mm 12.00 W/m2
15:15 10 °C 9.7 °C 1013.1 hPa SE 24.1 km/h 35.4 km/h 98 % 4.32 mm 12.00 W/m2
15:20 10 °C 9.7 °C 1012.8 hPa SSE 14.5 km/h 40.2 km/h 98 % 3.56 mm 9.00 W/m2
15:26 10 °C 9.7 °C 1012.4 hPa SE 29 km/h 46.7 km/h 98 % 2.29 mm 11.00 W/m2
15:31 10 °C 9.7 °C 1012.4 hPa SSE 41.8 km/h 45.1 km/h 98 % 2.54 mm 7.00 W/m2
15:36 10 °C 9.7 °C 1012.4 hPa SE 16.1 km/h 40.2 km/h 98 % 2.54 mm 9.00 W/m2
15:41 10 °C 9.7 °C 1012.4 hPa SE 24.1 km/h 45.1 km/h 98 % 2.03 mm 11.00 W/m2
15:46 10 °C 9.7 °C 1012.4 hPa South 30.6 km/h 45.1 km/h 98 % 2.03 mm 9.00 W/m2
15:51 10 °C 9.7 °C 1012.4 hPa ESE 24.1 km/h 40.2 km/h 98 % 3.3 mm 7.00 W/m2
15:56 10 °C 9.7 °C 1012.8 hPa SSE 22.5 km/h 37 km/h 98 % 4.83 mm 9.00 W/m2
16:01 10 °C 9.7 °C 1013.1 hPa WSW 25.7 km/h 30.6 km/h 98 % 3.56 mm 5.00 W/m2
16:06 10 °C 9.7 °C 1012.8 hPa South 35.4 km/h 38.6 km/h 98 % 4.32 mm 7.00 W/m2
16:11 9.9 °C 9.7 °C 1012.8 hPa SSE 19.3 km/h 27.4 km/h 98 % 3.56 mm 7.00 W/m2
16:16 9.9 °C 9.7 °C 1013.1 hPa South 9.7 km/h 14.5 km/h 98 % 1.52 mm 5.00 W/m2
16:21 10 °C 9.7 °C 1013.1 hPa SSE 16.1 km/h 16.1 km/h 98 % 1.02 mm 9.00 W/m2
16:26 10 °C 9.7 °C 1012.8 hPa SE 9.7 km/h 24.1 km/h 98 % 1.02 mm 7.00 W/m2
16:31 10 °C 9.7 °C 1013.1 hPa South 11.3 km/h 12.9 km/h 98 % 1.78 mm 5.00 W/m2
16:36 10 °C 9.7 °C 1013.4 hPa SW 9.7 km/h 14.5 km/h 98 % 4.57 mm 5.00 W/m2
16:41 10 °C 9.7 °C 1013.1 hPa SSE 30.6 km/h 35.4 km/h 98 % 3.81 mm 7.00 W/m2
16:46 10 °C 9.7 °C 1013.1 hPa South 12.9 km/h 19.3 km/h 98 % 2.03 mm 11.00 W/m2
16:51 10 °C 9.7 °C 1013.4 hPa South 17.7 km/h 25.7 km/h 98 % 1.02 mm 7.00 W/m2
16:56 10 °C 9.7 °C 1013.1 hPa SSE 16.1 km/h 25.7 km/h 98 % 1.02 mm 0.00 W/m2
17:01 10.1 °C 9.8 °C 1013.1 hPa South 24.1 km/h 24.1 km/h 98 % 1.02 mm 0.00 W/m2
17:06 10.1 °C 9.8 °C 1013.4 hPa SSE 20.9 km/h 25.7 km/h 98 % 1.02 mm 0.00 W/m2
17:11 10.2 °C 9.9 °C 1013.4 hPa South 17.7 km/h 20.9 km/h 98 % 0 mm 0.00 W/m2
17:16 10.2 °C 9.9 °C 1013.4 hPa South 14.5 km/h 24.1 km/h 98 % 0 mm 0.00 W/m2
17:21 10.2 °C 9.9 °C 1013.1 hPa SSE 14.5 km/h 20.9 km/h 98 % 0 mm 0.00 W/m2
17:26 10.2 °C 9.9 °C 1013.4 hPa South 27.4 km/h 27.4 km/h 98 % 0 mm 0.00 W/m2
17:31 10.2 °C 9.9 °C 1013.4 hPa SSW 30.6 km/h 30.6 km/h 98 % 0 mm 0.00 W/m2
17:36 10.2 °C 9.9 °C 1013.4 hPa SSE 24.1 km/h 32.2 km/h 98 % 0 mm 0.00 W/m2
17:41 10.2 °C 9.9 °C 1013.8 hPa SSE 14.5 km/h 20.9 km/h 98 % 0 mm 0.00 W/m2
17:46 10.2 °C 9.9 °C 1013.8 hPa South 19.3 km/h 19.3 km/h 98 % 0 mm 0.00 W/m2
17:51 10.2 °C 9.9 °C 1013.8 hPa South 14.5 km/h 19.3 km/h 98 % 0 mm 0.00 W/m2
17:56 10.2 °C 9.9 °C 1013.8 hPa SSE 17.7 km/h 25.7 km/h 98 % 0 mm 0.00 W/m2
18:01 10.2 °C 9.9 °C 1014.1 hPa South 24.1 km/h 25.7 km/h 98 % 0 mm 0.00 W/m2
18:06 10.2 °C 9.9 °C 1014.1 hPa South 20.9 km/h 24.1 km/h 98 % 0 mm 0.00 W/m2
18:11 10.2 °C 9.9 °C 1014.1 hPa SSE 22.5 km/h 40.2 km/h 98 % 0 mm 0.00 W/m2
18:16 10.2 °C 9.9 °C 1014.1 hPa SSE 16.1 km/h 27.4 km/h 98 % 0 mm 0.00 W/m2
18:21 10.2 °C 9.9 °C 1014.1 hPa South 24.1 km/h 29 km/h 98 % 0 mm 0.00 W/m2
18:27 10.2 °C 9.9 °C 1014.1 hPa SSE 16.1 km/h 29 km/h 98 % 0 mm 0.00 W/m2
18:32 10.2 °C 9.9 °C 1014.1 hPa South 16.1 km/h 27.4 km/h 98 % 0 mm 0.00 W/m2
18:36 10.2 °C 9.9 °C 1014.1 hPa SSW 4.8 km/h 30.6 km/h 98 % 0 mm 0.00 W/m2
18:39 10.2 °C 9.9 °C 1014.1 hPa SSE 11.3 km/h 22.5 km/h 98 % 0 mm 0.00 W/m2
18:41 10.2 °C 9.9 °C 1014.4 hPa South 14.5 km/h 22.5 km/h 98 % 0 mm 0.00 W/m2
18:46 10.2 °C 9.9 °C 1014.4 hPa Calm   25.7 km/h 98 % 0 mm 0.00 W/m2
18:51 10.2 °C 9.9 °C 1014.8 hPa SSW 12.9 km/h 22.5 km/h 98 % 0 mm 0.00 W/m2
18:56 10.2 °C 9.9 °C 1014.4 hPa SE 9.7 km/h 24.1 km/h 98 % 0 mm 0.00 W/m2
19:01 10.2 °C 9.9 °C 1014.4 hPa SSE 8 km/h 38.6 km/h 98 % 0 mm 0.00 W/m2
19:06 10.2 °C 9.9 °C 1014.4 hPa South 11.3 km/h 27.4 km/h 98 % 0 mm 0.00 W/m2
19:11 10.2 °C 9.9 °C 1014.4 hPa South 6.4 km/h 24.1 km/h 98 % 0 mm 0.00 W/m2
19:16 10.2 °C 9.9 °C 1014.4 hPa SSW 6.4 km/h 20.9 km/h 98 % 1.02 mm 0.00 W/m2
19:21 10.2 °C 9.9 °C 1014.1 hPa South 12.9 km/h 25.7 km/h 98 % 2.54 mm 0.00 W/m2
19:26 10.2 °C 9.9 °C 1014.1 hPa South 9.7 km/h 19.3 km/h 98 % 2.03 mm 0.00 W/m2
19:31 10.2 °C 9.9 °C 1014.1 hPa SSW 16.1 km/h 24.1 km/h 98 % 12.95 mm 0.00 W/m2
19:36 10.2 °C 9.9 °C 1014.1 hPa SSW 14.5 km/h 20.9 km/h 98 % 4.06 mm 0.00 W/m2
19:41 10.1 °C 9.8 °C 1014.1 hPa SE 19.3 km/h 24.1 km/h 98 % 1.78 mm 0.00 W/m2
19:46 10.1 °C 9.8 °C 1014.1 hPa SSE 22.5 km/h 35.4 km/h 98 % 1.52 mm 0.00 W/m2
19:51 10.1 °C 9.8 °C 1014.1 hPa South 12.9 km/h 32.2 km/h 98 % 1.52 mm 0.00 W/m2
19:56 10.1 °C 9.8 °C 1014.1 hPa Calm   35.4 km/h 98 % 1.27 mm 0.00 W/m2
20:01 10.2 °C 9.9 °C 1014.1 hPa SSW 6.4 km/h 24.1 km/h 98 % 3.81 mm 0.00 W/m2
20:06 10.2 °C 9.9 °C 1014.1 hPa Calm   29 km/h 98 % 4.83 mm 0.00 W/m2
20:11 10.2 °C 9.9 °C 1014.4 hPa WSW 11.3 km/h 30.6 km/h 98 % 2.03 mm 0.00 W/m2
20:16 10.2 °C 9.9 °C 1014.1 hPa SSW 19.3 km/h 24.1 km/h 98 % 2.03 mm 0.00 W/m2
20:21 10.2 °C 9.9 °C 1014.1 hPa SSW 16.1 km/h 24.1 km/h 98 % 1.27 mm 0.00 W/m2
20:26 10.2 °C 9.9 °C 1014.1 hPa SSW 19.3 km/h 22.5 km/h 98 % 1.02 mm 0.00 W/m2
20:31 10.3 °C 10 °C 1014.1 hPa South 9.7 km/h 19.3 km/h 98 % 0 mm 0.00 W/m2
20:36 10.3 °C 10 °C 1014.1 hPa South 3.2 km/h 22.5 km/h 98 % 0 mm 0.00 W/m2
20:41 10.3 °C 10.1 °C 1013.8 hPa SSE 1.6 km/h 20.9 km/h 98 % 0 mm 0.00 W/m2
20:46 10.3 °C 10.1 °C 1013.8 hPa South 11.3 km/h 19.3 km/h 98 % 0 mm 0.00 W/m2
20:51 10.3 °C 10.1 °C 1013.8 hPa South 19.3 km/h 29 km/h 98 % 0 mm 0.00 W/m2
20:56 10.4 °C 10.1 °C 1013.8 hPa South 9.7 km/h 24.1 km/h 98 % 0 mm 0.00 W/m2
21:01 10.3 °C 10.1 °C 1013.8 hPa South 14.5 km/h 20.9 km/h 98 % 0 mm 0.00 W/m2
21:06 10.4 °C 10.1 °C 1014.1 hPa South 8 km/h 27.4 km/h 98 % 0 mm 0.00 W/m2
21:11 10.4 °C 10.1 °C 1014.1 hPa Calm   20.9 km/h 98 % 0 mm 0.00 W/m2
21:16 10.4 °C 10.1 °C 1014.1 hPa SE 1.6 km/h 19.3 km/h 98 % 0 mm 0.00 W/m2
21:21 10.4 °C 10.1 °C 1013.8 hPa SE 12.9 km/h 22.5 km/h 98 % 0 mm 0.00 W/m2
21:26 10.3 °C 10.1 °C 1014.1 hPa SSE 11.3 km/h 29 km/h 98 % 0 mm 0.00 W/m2
21:31 10.3 °C 10 °C 1014.4 hPa SSE 25.7 km/h 33.8 km/h 98 % 0 mm 0.00 W/m2
21:36 10.3 °C 10 °C 1014.1 hPa Calm   25.7 km/h 98 % 6.35 mm 0.00 W/m2
21:41 10.2 °C 9.9 °C 1014.4 hPa South 4.8 km/h 25.7 km/h 98 % 2.29 mm 0.00 W/m2
21:46 10.2 °C 9.9 °C 1014.4 hPa SW 17.7 km/h 32.2 km/h 98 % 14.73 mm 0.00 W/m2
21:51 10.2 °C 9.9 °C 1014.4 hPa SSW 6.4 km/h 17.7 km/h 98 % 20.32 mm 0.00 W/m2
21:56 10.2 °C 9.9 °C 1014.4 hPa SW 24.1 km/h 25.7 km/h 98 % 18.03 mm 0.00 W/m2
22:01 10.1 °C 9.8 °C 1014.8 hPa SSE 8 km/h 24.1 km/h 98 % 2.29 mm 0.00 W/m2
22:06 10.1 °C 9.8 °C 1014.8 hPa SW 4.8 km/h 24.1 km/h 98 % 1.52 mm 0.00 W/m2
22:11 10.1 °C 9.8 °C 1014.8 hPa Calm   12.9 km/h 98 % 1.52 mm 0.00 W/m2
22:16 10.1 °C 9.8 °C 1014.8 hPa SSW 1.6 km/h 16.1 km/h 98 % 1.27 mm 0.00 W/m2
22:21 10 °C 9.7 °C 1014.8 hPa WSW 9.7 km/h 24.1 km/h 98 % 1.02 mm 0.00 W/m2
22:26 9.9 °C 9.7 °C 1015.1 hPa WSW 4.8 km/h 22.5 km/h 98 % 3.05 mm 0.00 W/m2
22:31 9.9 °C 9.6 °C 1015.1 hPa Calm   19.3 km/h 98 % 8.64 mm 0.00 W/m2
22:36 9.9 °C 9.6 °C 1014.8 hPa South 4.8 km/h 19.3 km/h 98 % 5.33 mm 0.00 W/m2
22:41 9.8 °C 9.6 °C 1015.1 hPa SW 6.4 km/h 12.9 km/h 98 % 2.54 mm 0.00 W/m2
22:46 9.8 °C 9.5 °C 1015.1 hPa Calm   24.1 km/h 98 % 4.83 mm 0.00 W/m2
22:51 9.8 °C 9.5 °C 1015.1 hPa Calm   19.3 km/h 98 % 8.64 mm 0.00 W/m2
22:56 9.7 °C 9.4 °C 1014.8 hPa Calm   14.5 km/h 98 % 4.06 mm 0.00 W/m2
23:01 9.7 °C 9.4 °C 1014.8 hPa SW 8 km/h 17.7 km/h 98 % 2.54 mm 0.00 W/m2
23:06 9.6 °C 9.3 °C 1015.1 hPa WSW 11.3 km/h 19.3 km/h 98 % 4.83 mm 0.00 W/m2
23:11 9.6 °C 9.3 °C 1015.1 hPa Calm   17.7 km/h 98 % 5.33 mm 0.00 W/m2
23:16 9.6 °C 9.3 °C 1014.8 hPa Calm   12.9 km/h 98 % 6.1 mm 0.00 W/m2
23:21 9.6 °C 9.3 °C 1014.8 hPa SW 20.9 km/h 20.9 km/h 98 % 4.57 mm 0.00 W/m2
23:26 9.5 °C 9.2 °C 1014.8 hPa SW 9.7 km/h 22.5 km/h 98 % 3.81 mm 0.00 W/m2
23:31 9.5 °C 9.1 °C 1014.8 hPa SSW 8 km/h 14.5 km/h 97 % 4.83 mm 0.00 W/m2
23:36 9.4 °C 9 °C 1014.8 hPa SW 4.8 km/h 14.5 km/h 97 % 3.05 mm 0.00 W/m2
23:41 9.4 °C 9 °C 1014.8 hPa Calm   14.5 km/h 97 % 1.27 mm 0.00 W/m2
23:46 9.4 °C 9.1 °C 1015.1 hPa WSW 11.3 km/h 11.3 km/h 98 % 1.27 mm 0.00 W/m2
23:51 9.3 °C 8.9 °C 1015.1 hPa Calm   17.7 km/h 97 % 1.27 mm 0.00 W/m2
23:56 9.3 °C 9 °C 1015.1 hPa SW 4.8 km/h 4.8 km/h 98 % 1.52 mm 0.00 W/m2
Juneau County Weather
Compliments of Weather Underground - 4.5 mb
 WU-history PHP script courtesy of   Juneau County Weather.
powered by Cumulus v1.9.3 (1059)
Ambient Weather VWS v14.00
Top Contact Website Map Copyright © 2007 - 2018 Foresthillweather.com Never base important decisions on this or any weather information obtained from the Internet